Location: Peebles
(55.6412°N, 3.1714°W)
Time: 16:12:18
(UTC+01:00)

Meteor 2-20 Rocket - Pass Details

Date: 26 September 2021
Orbit: 940 x 960 km, 82.5° (Epoch: 18 October)

Event Time Altitude Azimuth Distance (km) Brightness Sun altitude
Rises 20:30:44 0° 348° (NNW) 3,642 7.9 -13.4°
Reaches altitude 10° 20:33:17 10° 352° (N) 2,690 7.2 -13.7°
Maximum altitude 20:39:22 60° 72° (ENE) 1,078 4.5 -14.5°
Enters shadow 20:44:56 12° 152° (SSE) 2,493 6.2 -15.3°
